Home > Weather > Lynchburg > Past weeks

Flag for USA Past Weather in Lynchburg, Virginia, USA — Yesterday and Last 2 Weeks

Now
79 °F

Clear.


Feels Like: 82 °F
Forecast: 70 / 95 °F
Wind: 3 mph from Southwest

Location: Lynchburg Regional Airport

Current Time: Jul 24, 2016 at 10:34:29 PM

Latest Report: Jul 24, 2016 at 9:54 PM


Visibility: 10 mi

Pressure: 30.01 "Hg

Humidity: 82%

Dew Point: 73 °F

Location of LynchburgLocation

Past Weather in Lynchburg — Graph

°F

Lynchburg Temperature Yesterday

Maximum temperature yesterday: 93 °F (at 3:54 PM)
Minimum temperature yesterday: 69 °F (at 5:54 AM)
Average temperature yesterday: 81 °F

High & Low Weather Summary for the Past Weeks

 TemperatureHumidityPressure
High94 °F (Jul 24, 3:54 PM)100% (Jul 11, 5:54 AM)30.22 "Hg (Jul 11, 5:54 AM)
Low62 °F (Jul 11, 5:54 AM)38% (Jul 17, 3:54 PM)29.90 "Hg (Jul 9, 8:54 PM)
Average77 °F77%30.07 "Hg
* Reported Jul 9 8:54 PM — Jul 24 8:54 PM, Lynchburg, Weather by CustomWeather, © 2016

Note: Actual official high and low records may vary slightly from our data, if they occured in-between our weather recording intervals... More about our weather records

Advertising

Lynchburg Weather History for the Previous 24 Hours

Scroll right to see more
 ConditionsComfort  
Time TempWeatherWind HumidityBarometerVisibility
8:54 PM
Sun, Jul 24
80 °FSunny.3 mph79%30.00 "Hg10 mi
7:54 PM86 °FSunny.7 mph65%29.99 "Hg10 mi
6:54 PM91 °FSunny.8 mph54%29.97 "Hg10 mi
5:54 PM93 °FScattered clouds.9 mph49%29.98 "Hg10 mi
4:54 PM93 °FPassing clouds.9 mph47%29.97 "Hg10 mi
3:54 PM94 °FSunny.8 mph40%29.98 "Hg10 mi
2:54 PM93 °FPassing clouds.9 mph46%29.99 "Hg10 mi
1:54 PM93 °FSunny.5 mph47%30.01 "Hg10 mi
12:54 PM91 °FSunny.7 mph54%30.02 "Hg10 mi
11:54 AM91 °FSunny.3 mph52%30.03 "Hg10 mi
10:54 AM88 °FSunny.7 mph57%30.02 "Hg10 mi
9:54 AM87 °FSunny.5 mph59%30.01 "Hg10 mi
8:54 AM84 °FSunny.No wind65%30.01 "Hg10 mi
7:54 AM76 °FSunny.No wind88%30.01 "Hg10 mi
6:54 AM71 °FClear.No wind96%30.01 "Hg10 mi
5:54 AM70 °FClear.No wind97%29.99 "Hg10 mi
4:54 AM70 °FClear.No wind97%29.98 "Hg10 mi
3:54 AM72 °FClear.No wind93%29.97 "Hg10 mi
2:54 AM72 °FClear.No wind97%29.98 "Hg10 mi
1:54 AM73 °FClear.No wind94%29.99 "Hg10 mi
12:54 AM73 °FClear.No wind94%29.98 "Hg10 mi
11:54 PM
Sat, Jul 23
76 °FClear.3 mph88%29.98 "Hg10 mi
10:54 PM76 °FClear.3 mph91%29.97 "Hg10 mi
Weather by CustomWeather, © 2016

See weather overviewHow to use our weather pages